Theta_e
291 290 290 290 289 289 289 289 289 289 289 290 290 290 289 289 289 288 288 288 288 288 288 288 288 287 287 287 287 287 288 288 288 289 289 289 289 289 289 289 289 289 289 289 289 289 289 289 289 289 289 289 290 290 290 290 290 290 290 290 291 291 291 291 292 292 292 292 292 293 293 293 293 293 293 293 293 293 293 293 293 294 294 294 294 294
291 290 290 290 289 289 289 289 289 289 290 290 290 289 289 288 288 288 288 288 288 288 288 288 288 287 287 287 287 287 288 288 288 288 288 288 288 288 288 289 289 289 289 289 289 289 289 289 289 289 289 289 289 290 290 290 290 290 290 290 290 291 291 291 291 291 291 292 292 292 292 292 292 292 292 292 292 292 293 293 293 293 293 293 294 294
291 291 291 290 290 290 290 290 290 290 290 290 289 289 288 288 288 288 288 288 288 288 288 288 288 287 287 287 287 287 287 287 288 288 288 288 288 288 288 288 288 288 288 288 289 289 289 289 289 289 289 289 289 290 290 290 290 290 290 290 290 290 291 291 291 291 291 291 291 291 291 291 291 291 291 291 292 292 292 292 292 293 293 293 293 293
292 291 291 290 290 290 290 290 290 290 290 289 289 289 288 288 288 288 288 288 288 288 288 288 288 287 287 287 287 287 287 287 287 287 288 288 288 288 288 288 288 288 288 288 288 289 289 289 289 289 289 289 289 289 289 290 290 290 290 290 290 290 290 290 290 290 290 290 291 291 291 291 291 291 291 291 291 291 291 292 292 292 292 292 292 292
291 291 291 290 290 290 290 290 290 289 289 289 289 288 288 288 288 288 288 288 288 288 288 288 288 287 287 287 287 287 286 287 287 287 287 287 287 287 287 287 287 288 288 288 288 289 289 289 289 289 289 289 289 289 289 290 290 290 290 290 290 290 290 290 290 290 290 290 290 290 290 290 290 290 290 290 291 291 291 291 291 291 291 291 291 292
291 291 291 290 290 290 290 290 289 289 289 289 288 288 288 288 288 288 288 288 288 288 288 288 287 287 287 287 287 286 286 286 287 286 286 286 286 286 287 287 287 287 288 288 288 289 289 289 289 289 289 289 289 290 290 290 290 290 290 290 290 290 290 290 290 290 290 290 290 290 290 290 290 290 290 290 290 290 290 290 291 291 291 291 291 291
292 291 291 291 290 290 290 289 289 289 289 288 288 288 288 288 288 288 288 288 288 288 288 287 287 287 287 287 286 286 286 286 286 285 285 285 285 286 286 286 287 287 288 288 288 288 289 289 289 289 289 289 289 289 290 290 290 290 290 290 290 290 290 289 289 289 289 289 289 289 289 289 289 289 289 289 289 289 290 290 290 290 290 290 291 291
291 291 290 290 290 290 289 289 289 289 288 288 288 289 289 289 289 288 288 288 288 288 288 287 287 287 287 286 286 286 285 285 285 285 285 285 285 285 286 286 287 287 287 288 288 288 288 289 289 289 289 289 289 289 289 289 289 289 289 289 289 289 289 289 289 289 289 289 289 289 289 289 289 289 289 289 289 289 289 289 289 290 290 290 290 291
290 290 290 290 289 289 289 289 289 289 289 289 289 289 289 289 289 288 288 288 288 288 288 287 287 287 286 286 286 285 285 285 285 285 284 285 285 285 286 286 287 287 287 288 288 288 288 288 288 289 288 288 288 288 288 288 289 288 288 288 288 288 288 288 288 288 288 288 288 288 288 288 289 289 289 289 289 289 289 289 289 289 290 290 290 290
289 289 289 289 289 289 289 289 289 289 289 289 289 289 289 289 288 288 288 288 288 287 287 287 287 286 286 286 285 285 285 285 284 284 285 285 285 286 286 286 286 287 287 287 287 287 288 288 288 288 288 288 288 288 288 288 288 288 288 288 288 288 288 288 288 288 288 288 288 288 288 288 289 289 289 289 289 289 289 289 289 289 290 290 290 290
289 289 289 289 289 289 289 289 289 289 289 289 289 289 289 289 289 288 288 288 287 287 287 286 286 286 285 285 285 285 284 284 284 284 284 285 285 285 286 286 286 286 286 286 287 287 287 287 287 287 287 287 287 287 287 287 287 287 287 287 287 288 288 288 288 288 288 288 288 288 288 288 288 289 289 289 289 289 289 289 289 289 290 290 290 290
288 289 289 289 289 289 289 289 289 289 289 289 289 289 289 289 288 288 287 287 287 286 286 286 285 285 285 285 284 284 284 284 284 284 284 285 285 285 285 286 286 286 286 286 286 286 285 285 286 286 286 286 286 286 286 286 287 287 287 287 287 287 288 288 288 288 288 288 288 288 288 288 288 289 289 289 289 289 289 289 289 289 289 289 290 290
288 289 289 289 289 289 289 289 289 289 289 289 289 289 289 288 288 287 287 286 286 286 286 285 285 285 285 284 284 284 284 284 284 284 285 285 285 285 285 285 285 285 285 285 285 285 285 285 285 285 285 285 285 286 286 286 286 286 287 287 287 287 288 288 288 288 288 288 288 288 288 288 288 289 289 289 289 289 289 289 289 289 289 289 290 290
288 289 289 289 289 289 289 289 289 289 289 289 289 288 288 287 287 287 286 286 286 285 285 285 285 284 284 284 284 284 284 284 284 285 285 285 285 285 285 285 285 285 285 285 285 285 285 285 285 285 285 285 285 285 285 285 285 286 286 287 287 287 288 288 288 288 288 288 288 288 288 288 289 289 289 289 289 289 289 289 289 289 289 289 289 289
289 289 289 289 289 289 289 289 289 289 289 288 288 288 287 287 287 286 286 286 285 285 285 285 284 284 284 284 284 284 284 284 285 285 285 285 285 285 285 285 284 284 284 284 284 284 284 284 284 285 285 285 285 285 285 285 286 286 287 287 287 288 288 288 288 288 288 288 288 289 289 289 289 289 289 289 289 289 289 289 289 289 289 289 289 289
289 289 289 289 290 290 289 289 289 289 288 288 288 287 287 287 286 286 285 285 285 285 284 284 284 283 283 283 283 284 284 284 285 285 285 284 284 284 284 284 284 284 284 284 284 284 284 284 284 284 284 285 285 285 285 286 286 287 287 287 288 288 288 288 288 288 288 288 289 289 289 289 289 289 289 289 289 289 289 289 289 289 289 289 289 289
289 290 290 290 289 289 289 289 289 288 288 288 287 287 287 286 286 285 285 285 285 284 284 284 283 283 283 283 283 284 284 284 284 284 284 284 284 284 284 284 284 284 284 284 284 284 284 284 284 284 284 284 285 285 286 286 286 287 287 287 287 288 288 288 288 288 288 288 289 289 289 289 289 289 289 289 289 289 289 289 289 289 289 289 289 289
290 290 290 289 289 289 289 289 288 288 287 287 287 286 286 286 285 285 285 284 284 284 284 283 283 283 283 283 283 284 284 284 284 284 284 283 283 283 283 283 283 284 284 284 284 284 284 284 284 284 284 285 285 285 286 286 286 287 287 287 287 288 288 288 288 288 288 288 288 288 289 289 289 289 289 289 289 289 289 289 289 289 289 289 289 289
290 289 289 289 289 289 288 288 287 287 287 286 286 286 286 285 285 285 284 284 284 283 283 283 283 283 283 283 283 284 284 284 284 283 283 283 283 283 283 283 283 284 284 284 284 284 284 284 284 284 284 284 285 285 285 286 286 287 287 287 287 288 288 288 288 288 288 288 288 288 289 289 289 289 289 289 289 289 289 289 289 289 289 289 289 289
289 289 289 288 288 288 287 287 287 286 286 286 286 285 285 285 285 284 284 284 283 283 283 283 283 283 283 283 284 284 284 284 283 283 283 283 283 283 283 283 283 284 284 284 284 284 284 284 284 284 284 284 284 285 285 286 286 287 287 287 287 287 287 288 288 288 288 288 288 288 288 289 289 289 289 289 289 289 289 289 289 289 289 289 289 289
288 288 288 287 287 287 287 286 286 286 286 286 285 285 285 285 284 284 284 283 283 283 283 283 283 283 284 284 284 283 283 283 283 283 283 283 283 283 283 283 284 284 284 284 284 284 284 284 284 284 284 284 284 285 285 286 286 286 286 287 287 287 287 287 288 288 288 288 288 288 288 288 289 289 289 289 289 289 289 289 289 289 289 289 289 289
288 287 287 287 287 287 286 286 286 286 286 285 285 285 285 284 284 284 283 283 283 283 283 283 283 283 283 283 283 283 283 283 282 282 282 282 283 283 283 283 284 284 284 284 284 284 284 284 284 284 284 284 284 285 285 285 286 286 286 286 286 287 287 287 287 288 288 288 288 288 288 288 289 289 289 289 289 289 289 289 289 289 289 289 289 289
287 287 287 287 286 286 286 286 286 285 285 285 285 285 284 284 284 283 283 283 283 283 283 283 283 283 283 283 282 282 282 282 282 282 282 283 283 283 283 284 284 284 284 284 284 284 284 284 284 284 284 284 284 284 285 285 285 285 285 286 286 286 287 287 287 287 288 288 288 288 288 288 288 288 289 289 289 289 289 289 289 289 289 289 289 289
286 286 286 286 286 286 286 285 285 285 285 285 284 284 284 284 283 283 283 283 283 283 283 283 283 283 282 282 282 282 282 282 283 283 283 283 283 283 283 283 283 283 283 284 284 284 284 284 284 284 284 284 284 284 285 285 285 285 285 285 286 286 286 287 287 287 287 287 288 288 288 288 288 288 288 288 288 288 288 289 289 289 289 289 289 289
286 286 286 285 285 285 285 285 285 285 285 285 285 284 284 284 284 283 283 283 283 283 283 283 282 282 282 282 282 282 282 282 283 283 283 283 283 283 283 283 283 283 283 283 283 283 283 284 284 284 284 284 284 284 284 284 284 284 284 285 285 286 286 286 286 286 286 287 287 287 287 287 287 288 288 288 288 288 288 288 288 288 288 288 288 288
285 285 285 285 285 285 285 285 285 285 285 285 285 285 284 284 284 283 283 283 283 283 282 282 282 282 282 282 282 282 282 282 283 283 283 283 283 283 283 283 283 283 283 283 283 283 283 283 284 284 284 284 284 284 284 284 284 284 284 285 285 285 285 285 285 286 286 286 286 286 287 287 287 287 288 288 288 288 288 288 288 288 288 288 288 288
284 284 284 284 284 284 284 284 285 285 285 285 285 285 285 284 284 284 283 283 283 282 282 282 282 281 282 282 282 282 282 282 282 283 283 283 283 283 283 283 283 283 283 283 283 283 283 283 283 283 284 284 284 284 284 284 284 284 284 284 284 284 284 284 284 285 285 285 286 286 286 287 287 287 287 287 288 288 288 288 288 288 288 288 288 288
284 284 284 284 284 284 284 284 284 284 284 284 284 284 284 284 284 284 283 283 283 282 282 282 281 281 282 282 282 282 282 282 282 282 282 282 282 282 282 283 283 283 283 283 283 283 283 283 283 283 283 284 284 284 284 283 283 283 284 284 284 284 284 284 284 284 285 285 285 286 286 286 287 287 287 287 287 287 287 288 288 288 288 288 288 287
284 284 284 284 284 284 284 283 283 283 283 283 284 284 284 284 284 283 283 283 283 282 282 282 282 282 282 282 282 282 282 282 282 282 282 282 282 282 283 283 283 283 283 283 283 283 283 283 283 283 283 283 283 283 283 283 283 283 283 283 283 283 283 283 284 284 284 285 285 285 286 286 286 286 287 287 287 287 287 287 287 287 287 287 287 287
283 283 283 283 283 283 283 283 283 282 282 283 283 284 284 283 283 283 283 283 283 282 282 282 282 282 282 282 282 282 282 282 282 283 283 283 283 283 283 283 283 283 283 282 283 283 283 283 283 283 283 283 283 283 283 283 283 283 283 283 283 283 283 283 283 284 284 284 285 285 285 285 286 286 286 286 286 287 287 287 287 287 287 287 287 286
282 282 283 283 282 282 282 282 282 282 282 282 282 282 282 282 282 282 282 282 282 282 282 281 282 282 282 282 281 281 281 282 283 282 282 282 282 282 282 282 282 282 282 282 282 283 283 283 283 283 283 283 282 282 282 282 282 282 282 282 283 283 283 283 283 283 284 284 284 284 285 285 285 285 285 286 286 286 286 286 286 286 286 286 286 286
282 282 282 282 282 282 281 281 281 281 281 281 281 281 281 281 282 282 282 282 282 281 281 281 281 281 281 281 281 281 281 282 282 282 282 282 282 282 282 282 282 282 282 282 282 282 282 283 283 283 282 282 282 282 282 282 282 282 282 282 282 282 283 283 283 283 283 283 284 284 284 284 284 284 285 285 285 285 285 286 286 286 286 286 286 286
282 282 282 282 281 281 281 281 281 281 281 281 281 281 281 281 281 281 281 281 281 281 281 281 281 281 281 281 281 281 281 281 281 281 281 281 282 282 282 282 282 282 282 282 282 282 282 282 282 282 282 282 282 282 282 282 282 282 282 282 282 282 282 282 282 283 283 283 283 283 283 283 283 284 284 284 284 284 285 285 285 285 286 286 286 286
282 282 282 281 281 281 281 281 281 281 281 281 281 282 282 282 281 281 281 281 281 281 281 281 281 281 281 281 281 281 281 281 281 281 281 281 281 281 282 282 282 282 282 282 282 281 281 281 281 281 282 282 282 282 282 282 282 282 282 282 282 282 282 282 282 282 282 283 283 283 283 283 283 283 283 283 284 284 284 284 285 285 286 286 286 286
281 281 281 281 281 281 281 281 281 282 282 282 282 282 282 282 282 281 281 281 281 281 281 281 281 281 281 281 281 281 281 281 281 281 281 281 281 281 281 281 281 281 281 281 281 281 281 281 281 281 281 281 282 282 282 282 282 282 282 282 282 282 282 282 282 282 282 282 282 282 282 282 283 283 283 283 283 284 284 284 285 285 286 286 286 286
281 281 280 280 281 281 281 281 282 282 282 282 282 282 282 282 282 281 281 281 281 281 281 280 280 280 280 280 280 280 280 280 280 280 280 280 280 280 280 280 280 280 281 281 281 281 281 281 281 281 281 281 281 282 282 282 282 282 282 282 282 282 282 282 282 282 282 282 282 282 282 282 283 283 283 283 283 284 284 284 285 285 285 285 285 285
280 280 280 280 281 281 281 282 282 282 282 282 282 282 282 282 282 281 281 281 281 281 280 280 280 280 280 280 280 280 280 280 280 280 280 280 280 280 280 280 280 280 280 280 280 281 281 281 281 281 281 281 281 282 282 282 282 282 282 282 282 282 282 282 282 282 282 282 282 282 283 283 283 283 283 283 283 283 284 284 284 284 284 284 285 285
280 280 280 281 281 281 281 282 282 282 282 282 282 281 281 281 281 281 281 281 280 280 280 280 280 280 280 280 280 280 280 280 280 280 280 280 280 280 280 280 280 280 280 280 280 280 281 281 281 281 281 281 281 282 282 282 282 282 282 282 282 282 282 282 282 282 283 283 283 283 283 283 283 283 283 283 283 283 283 283 283 284 284 284 284 284
280 280 281 281 281 281 281 281 281 281 281 281 281 281 281 281 281 280 280 280 280 280 280 280 280 280 280 280 280 280 280 280 280 280 280 280 280 280 280 280 280 280 280 280 280 281 281 281 281 281 281 281 281 282 282 282 282 282 282 282 282 283 283 283 283 283 283 283 283 283 283 283 283 283 283 283 283 283 283 283 283 284 284 284 284 284
280 280 281 281 281 281 281 281 281 281 281 281 281 281 280 280 280 280 280 280 280 280 280 280 280 280 280 280 280 280 280 280 280 280 280 280 281 281 281 280 280 280 280 281 281 281 281 281 281 281 281 281 281 282 282 282 282 282 282 283 283 283 283 283 283 283 283 283 283 283 283 283 283 283 283 283 283 283 283 283 284 284 284 284 284 284
280 280 280 280 281 281 281 281 281 281 281 280 280 280 280 280 280 280 280 280 280 280 280 280 280 280 280 280 280 280 280 280 280 280 281 281 281 281 281 281 281 281 281 281 281 281 281 281 281 281 281 281 281 282 282 282 282 282 283 283 283 283 283 283 283 283 283 283 283 283 283 283 283 283 283 283 283 283 283 283 283 284 284 284 284 284
280 280 280 280 280 280 280 280 280 280 280 280 280 280 280 280 280 280 280 280 280 280 280 280 280 280 280 280 280 280 280 280 280 281 281 281 281 281 281 281 281 281 281 281 281 281 281 281 281 282 282 282 282 282 282 282 282 282 283 283 283 283 283 283 283 283 283 283 283 283 283 283 283 283 283 283 283 283 283 283 283 284 284 284 284 284
280 280 280 280 280 280 280 280 280 280 280 280 280 280 280 280 280 280 280 280 280 280 280 280 280 280 280 280 280 280 280 280 280 280 281 281 281 281 281 281 281 281 281 281 281 281 281 282 282 282 282 282 282 282 282 282 283 283 283 283 283 283 283 283 283 283 283 283 283 283 283 283 283 283 283 283 283 283 283 283 284 284 284 284 284 284
279 280 280 280 280 280 280 280 280 280 280 280 280 280 279 279 279 280 280 280 280 280 280 280 280 280 280 280 280 280 280 280 280 281 281 281 281 281 281 281 281 281 281 281 281 282 282 282 282 282 282 282 282 282 283 283 283 283 283 283 283 283 283 283 283 283 283 283 283 283 283 283 283 283 283 283 283 283 284 284 284 284 284 284 284 284
279 280 279 279 279 279 279 279 279 280 280 280 280 279 279 279 279 279 280 280 280 280 280 280 280 280 280 280 280 280 280 280 280 281 281 281 281 281 281 281 281 281 281 282 282 282 282 282 282 282 282 283 283 283 283 283 283 283 283 283 283 283 283 283 283 283 283 283 283 283 283 283 283 283 284 284 284 284 284 284 284 284 284 284 284 284
279 279 279 279 279 279 279 279 279 279 279 279 279 279 279 279 279 280 280 280 280 280 280 280 280 280 280 280 280 280 280 280 280 281 281 281 281 281 281 281 281 281 281 282 282 282 282 282 282 282 282 283 283 283 283 283 283 283 283 283 283 283 283 283 283 283 283 283 283 283 283 284 284 284 284 284 284 284 284 284 284 285 285 285 285 285
279 279 279 279 279 278 278 278 278 279 279 279 279 279 279 279 279 280 280 280 280 280 280 280 280 280 280 280 280 280 280 280 280 281 281 281 281 281 281 281 281 281 281 281 282 282 282 282 282 282 282 283 283 283 283 283 283 283 283 283 283 283 283 283 283 283 283 283 284 284 284 284 284 284 284 284 284 285 285 285 285 285 285 285 285 285
278 278 278 278 278 278 278 278 278 278 279 279 279 279 279 279 279 280 280 280 280 280 280 280 280 280 280 280 280 280 280 280 281 281 281 281 281 281 281 281 281 281 281 281 282 282 282 282 282 282 282 283 283 283 283 283 283 283 283 283 283 283 283 283 283 283 283 284 284 284 284 284 284 284 284 285 285 285 285 285 285 285 285 286 286 286
278 278 278 278 278 278 278 278 278 278 279 279 279 279 279 279 280 280 280 280 280 280 280 280 280 280 280 280 280 280 280 281 281 281 281 281 281 281 281 281 281 282 282 282 282 282 282 282 282 282 283 283 283 283 283 283 283 283 283 283 283 283 283 283 283 284 284 284 284 284 284 284 284 284 285 285 285 285 285 285 285 285 286 286 286 286
278 278 277 277 277 277 278 278 278 278 279 279 279 279 279 279 279 279 280 280 279 280 280 280 280 280 280 280 280 280 281 281 281 281 281 281 281 281 281 281 281 282 282 282 282 282 282 282 282 282 282 283 283 283 283 283 283 283 283 283 283 283 283 283 284 284 284 284 284 284 284 284 285 285 285 285 285 285 285 285 285 285 286 286 286 286
278 277 277 277 277 277 278 278 278 278 278 278 279 279 279 279 279 279 279 279 279 279 280 280 280 280 280 280 281 281 281 281 281 281 281 281 281 281 281 282 282 282 282 282 282 282 282 282 282 282 282 283 283 283 283 283 283 283 283 283 283 283 284 284 284 284 284 284 284 284 284 284 285 285 285 285 285 285 285 285 285 285 285 285 286 286
Wind_Speed
10 11 10 10 11 11 12 11 11 11 11 11 12 12 12 12 13 13 13 13 13 14 14 15 15 15 15 14 14 14 14 14 14 15 15 16 16 16 17 17 17 18 18 18 18 19 18 18 18 18 18 18 18 17 17 17 17 17 17 18 18 18 18 18 18 18 18 19 19 19 19 20 20 20 20 20 20 20 21 21 21 21 21 22 22 22
12 12 12 12 12 12 12 12 12 12 12 12 11 11 11 12 12 13 13 14 14 14 14 14 14 14 14 14 14 14 14 14 15 15 16 16 17 17 17 17 18 18 18 18 18 18 18 18 17 17 17 17 17 17 17 17 17 17 17 18 18 18 18 19 19 19 19 19 19 19 20 20 20 20 20 20 20 21 21 21 21 21 22 22 22 22
12 12 12 11 12 12 13 13 12 11 11 10 10 10 10 11 12 13 14 14 14 14 14 13 13 13 14 14 15 15 15 15 15 16 16 16 17 17 18 18 18 18 18 18 18 18 17 17 17 17 17 17 17 17 17 17 17 17 18 18 18 18 19 19 19 19 19 19 20 20 20 20 20 21 21 21 21 21 21 22 22 22 22 22 23 23
10 10 11 11 11 12 12 11 10 8 7 7 8 9 10 12 13 14 14 14 14 14 13 13 13 14 14 15 16 16 15 15 15 16 16 17 17 18 18 18 18 18 18 18 17 17 17 17 17 17 17 17 17 17 17 17 18 18 18 18 19 19 19 19 19 20 20 20 20 20 20 21 21 21 21 21 22 22 22 22 22 22 23 23 23 23
10 10 10 10 11 11 11 9 8 6 6 7 8 9 10 12 13 13 14 13 13 13 13 13 14 14 15 15 16 15 15 14 15 15 16 17 17 18 18 18 18 17 17 17 17 17 17 17 17 17 17 17 17 18 18 18 18 18 19 19 19 19 19 20 20 20 20 20 21 21 21 21 21 21 21 22 22 22 22 22 22 23 23 23 23 23
10 9 9 9 10 10 9 8 7 7 7 8 9 10 11 12 12 12 12 12 13 13 13 14 14 14 14 15 14 14 13 13 14 15 16 17 17 17 17 17 17 17 17 17 17 17 17 17 17 17 18 18 18 18 18 19 19 19 19 19 19 19 20 20 20 20 20 20 20 21 21 21 21 21 21 21 21 21 22 22 22 22 22 23 23 23
9 9 8 8 9 8 8 7 7 7 8 9 9 10 10 11 11 11 12 12 13 13 13 14 14 13 13 13 13 13 13 14 15 17 18 18 18 17 17 17 17 17 17 17 17 17 17 18 18 18 18 18 18 19 19 19 19 19 19 19 19 19 19 19 20 20 20 20 20 20 20 20 20 20 21 21 21 21 21 21 22 22 22 22 22 23
8 8 7 8 8 7 7 7 7 7 8 8 9 9 10 10 10 11 11 12 12 12 12 12 12 12 11 11 12 13 14 16 18 19 19 19 18 18 17 17 17 17 17 17 17 17 17 18 18 18 18 18 18 19 19 19 19 19 19 19 19 19 19 19 19 19 19 19 19 19 19 19 19 20 20 20 20 20 21 21 21 21 22 22 22 22
7 7 7 7 7 7 7 7 7 7 7 8 9 9 10 10 11 11 12 12 11 10 10 10 10 10 11 12 13 14 16 17 19 19 19 18 18 17 17 17 17 17 17 17 17 17 17 17 17 18 18 18 18 18 18 18 18 18 18 18 18 18 18 18 18 18 18 18 18 18 18 18 19 19 19 19 20 20 20 21 21 21 22 22 22 22
7 7 7 7 7 7 7 8 8 8 8 9 9 10 10 11 12 12 12 11 10 8 8 9 10 11 12 14 15 16 17 19 19 19 17 17 17 17 16 17 17 17 17 17 17 17 17 17 17 18 18 18 18 18 18 18 18 18 18 18 17 17 17 17 17 17 17 17 17 17 18 18 18 18 19 19 20 20 21 21 21 22 22 22 23 23
8 8 8 8 8 8 8 9 8 8 8 9 10 10 11 12 12 12 12 9 8 7 8 9 11 12 13 15 16 17 18 19 19 18 17 16 15 15 15 16 16 16 17 17 17 17 17 17 18 18 18 18 18 18 17 17 17 17 17 17 17 17 17 17 17 17 17 17 17 17 18 18 18 19 19 20 20 21 21 22 22 22 23 23 23 24
8 8 8 8 8 7 8 8 8 8 9 9 10 11 12 11 10 9 8 7 7 8 9 10 11 12 13 15 17 18 19 19 19 18 17 16 15 15 15 16 16 17 18 18 19 19 19 19 19 19 18 18 18 17 17 17 17 17 17 17 17 16 16 16 16 17 17 17 18 18 18 19 19 20 20 21 21 22 22 22 23 23 23 24 24 24
8 8 7 7 7 7 7 8 8 9 9 10 10 10 9 7 6 6 6 7 8 9 10 11 12 13 14 16 17 18 18 18 17 17 16 16 15 15 16 16 18 19 20 21 22 22 22 21 20 19 19 18 18 18 18 17 17 17 17 17 17 17 17 17 17 17 18 18 19 19 19 20 20 21 21 22 22 22 22 23 23 23 24 24 24 25
8 8 8 8 8 8 8 8 8 9 9 8 8 6 5 4 4 5 6 7 8 9 10 12 13 15 16 16 16 16 15 15 16 16 16 16 15 15 16 18 19 21 22 22 23 23 23 21 21 20 20 19 19 19 19 18 17 17 17 17 17 17 18 18 18 19 19 20 20 20 21 21 21 22 22 22 22 23 23 23 23 24 24 24 25 25
8 8 8 8 8 8 8 8 7 7 6 5 5 4 4 5 6 6 7 7 8 10 11 13 15 16 16 15 14 12 12 13 14 15 16 16 17 17 17 19 21 22 23 23 24 24 22 21 21 21 21 20 20 19 19 18 18 18 18 18 19 19 19 20 20 20 20 21 21 21 21 22 22 22 23 23 23 23 23 24 24 24 24 25 25 25
8 8 7 7 7 6 6 6 6 5 5 4 4 5 5 5 6 6 6 7 9 10 11 13 14 14 14 13 11 10 9 11 14 16 18 19 19 19 19 19 21 23 24 23 23 23 22 21 21 21 21 21 20 19 18 18 18 19 19 19 20 20 20 21 21 21 21 21 21 22 22 22 22 23 23 23 24 24 24 24 24 25 25 25 26 26
8 7 6 6 6 6 6 6 5 5 5 5 5 5 5 5 5 6 6 7 9 10 10 11 10 10 10 13 12 10 9 11 14 17 19 21 21 21 20 19 21 23 24 23 23 22 22 22 22 21 21 21 20 19 19 19 19 20 20 20 21 21 21 21 21 21 22 22 22 22 23 23 23 23 24 24 24 24 25 25 25 25 25 26 26 26
7 6 6 6 5 5 5 5 5 5 5 5 5 5 5 5 5 6 6 7 8 9 9 10 10 9 9 11 12 11 11 13 15 18 20 22 23 22 21 20 20 22 23 23 23 22 22 22 22 22 22 21 20 19 19 20 20 20 20 21 21 21 21 21 22 22 22 23 23 23 23 23 24 24 24 24 24 25 25 25 25 25 26 26 26 26
5 5 5 5 4 5 4 4 4 4 4 4 5 5 4 5 6 6 7 8 8 9 9 10 11 11 12 13 14 15 14 14 16 18 20 21 23 23 22 20 19 21 22 23 22 22 22 22 23 22 22 21 21 20 20 20 20 20 21 21 21 22 22 22 22 23 23 23 23 23 24 24 24 24 24 24 25 25 25 25 25 25 26 26 26 26
3 3 3 3 4 4 4 4 4 4 4 4 5 5 5 6 7 8 8 9 9 10 10 11 12 13 13 15 16 16 15 16 17 18 19 20 22 22 21 18 18 20 22 23 23 22 23 23 24 24 24 23 22 21 20 20 21 21 22 22 22 23 23 23 23 23 23 24 24 24 24 24 24 24 24 25 25 25 25 25 26 26 26 26 26 26
4 4 4 4 5 5 5 5 4 4 5 5 6 6 7 7 8 8 9 9 9 10 11 11 12 14 14 15 17 18 18 18 17 17 17 18 20 20 19 17 17 19 21 23 23 23 23 24 25 25 25 24 22 21 21 22 22 23 23 23 23 24 24 24 24 24 24 24 24 24 24 24 24 24 25 25 25 25 25 26 26 26 26 26 26 27
6 6 6 6 7 7 6 6 6 6 6 7 7 7 8 8 8 9 10 10 10 11 12 13 14 16 17 18 20 21 21 19 18 17 16 16 18 20 19 17 16 18 20 22 23 24 24 25 26 26 26 25 24 23 23 24 24 24 24 24 24 24 24 24 24 24 24 24 24 24 24 24 25 25 25 25 25 25 26 26 26 26 26 26 26 27
7 7 7 7 7 7 8 8 8 8 9 9 9 9 10 9 10 10 11 11 11 12 14 16 17 18 19 20 22 22 21 19 17 16 14 13 16 19 18 16 16 17 19 21 23 24 25 26 27 27 27 26 26 26 26 26 25 25 25 24 24 24 24 24 24 24 24 24 24 24 24 25 25 25 25 25 25 26 26 26 26 26 26 26 27 27
6 7 7 7 7 8 8 9 9 10 10 11 11 12 12 11 11 11 12 12 13 14 15 16 18 18 19 20 20 19 18 15 14 13 13 13 15 18 18 17 17 18 20 21 22 23 25 27 28 28 28 28 28 28 27 27 26 26 25 24 24 24 24 24 24 24 24 24 25 25 25 25 25 25 25 25 26 26 26 26 26 26 26 26 26 26
7 8 8 8 8 9 9 10 10 10 11 11 12 12 12 11 11 11 12 12 13 14 15 16 17 17 17 17 16 16 15 13 11 11 12 13 15 18 18 17 17 18 20 22 22 23 24 26 27 28 28 29 29 29 28 27 26 25 24 24 24 24 24 24 24 25 25 25 25 25 25 25 25 25 25 25 25 25 25 26 26 26 26 26 26 26
9 9 9 9 9 10 10 10 10 10 10 10 10 11 11 11 11 12 12 13 13 14 14 15 15 15 16 15 15 14 13 11 10 10 11 12 15 17 19 18 17 18 20 22 22 22 23 25 26 28 29 30 30 29 28 27 26 25 24 24 24 25 25 26 26 26 26 26 26 25 25 25 25 25 25 25 25 25 25 25 26 26 26 26 26 26
8 9 9 9 9 9 10 10 10 10 10 10 11 11 12 12 13 13 14 14 14 13 13 13 13 13 14 14 14 13 13 12 11 11 12 13 15 17 18 18 18 18 20 21 22 21 22 23 24 26 28 29 29 28 27 26 25 25 25 26 27 27 27 27 27 26 26 25 25 25 25 25 25 25 25 25 25 25 25 25 25 26 26 26 25 25
7 8 8 8 8 8 9 9 9 10 10 11 11 11 11 12 13 15 15 15 13 12 12 12 12 11 11 12 13 14 15 14 14 14 14 14 14 15 17 18 17 18 19 20 21 21 21 22 23 25 26 27 26 26 26 25 26 26 28 28 29 29 29 28 27 26 25 25 25 25 25 25 25 25 25 25 25 25 25 25 25 25 25 25 24 24
5 6 7 7 8 8 8 8 9 10 10 10 10 10 11 12 14 15 16 15 13 12 13 13 13 12 12 14 16 17 17 16 15 14 12 11 12 14 16 16 16 16 17 19 21 22 21 20 20 21 22 22 23 24 25 26 27 29 29 30 30 29 28 27 26 25 25 25 25 25 25 25 25 25 25 25 25 25 25 25 25 25 24 24 23 23
7 7 7 8 8 8 8 9 10 11 11 10 10 10 10 11 13 15 15 15 14 13 13 13 13 13 13 13 14 13 12 12 10 8 7 8 10 12 14 15 15 16 17 17 16 16 18 19 18 17 17 19 21 24 26 28 28 29 29 29 29 29 28 27 26 26 26 25 25 25 25 25 25 25 25 25 25 25 25 25 25 24 24 24 24 24
10 10 9 9 10 10 10 11 12 12 12 11 11 11 11 12 13 14 15 14 14 13 13 13 13 13 12 11 7 5 6 8 7 6 7 10 11 13 15 16 17 17 16 14 10 8 11 16 17 16 16 19 22 25 27 27 27 27 27 28 29 29 28 27 26 26 26 26 25 25 25 25 25 25 25 25 25 25 25 25 25 24 24 23 24 24
11 10 10 11 11 12 12 12 13 13 12 12 12 12 11 12 12 13 13 13 13 13 13 13 13 13 13 12 9 8 9 12 12 11 11 12 14 15 16 16 16 17 16 14 12 9 6 11 17 21 21 22 24 25 26 26 26 26 26 27 27 28 28 27 26 26 26 26 25 25 25 25 25 25 25 25 25 25 25 25 24 24 23 23 23 23
10 10 11 11 11 12 12 12 12 11 11 11 11 11 11 11 11 11 11 11 11 12 13 13 13 13 14 14 15 16 17 18 17 15 13 13 14 15 15 15 16 16 16 16 16 15 13 15 19 23 24 24 24 24 25 25 25 25 25 26 26 27 28 26 25 25 26 26 26 26 26 26 26 26 26 26 25 25 25 24 23 23 22 22 23 23
10 10 11 11 11 12 11 11 11 10 10 10 11 11 10 10 10 10 10 10 11 11 12 13 14 14 14 15 16 18 19 19 17 14 12 12 13 14 15 15 16 16 17 16 16 17 17 19 20 21 22 24 24 24 24 24 25 25 25 26 26 27 27 26 26 26 26 27 27 28 28 27 27 27 26 25 25 24 24 23 23 23 22 23 23 23
11 11 11 11 11 11 11 10 10 9 10 10 10 10 10 10 10 10 10 10 11 12 13 14 15 15 15 15 16 18 19 19 17 14 12 12 13 14 16 16 16 16 16 16 16 16 16 19 20 20 20 22 24 24 24 23 24 24 25 25 26 26 27 27 27 27 27 28 28 28 28 27 27 27 26 26 25 24 24 24 24 24 24 24 24 24
11 11 11 11 11 10 10 9 9 9 9 9 9 9 9 9 10 10 10 11 11 12 13 14 15 16 17 18 19 20 21 21 20 18 15 15 15 16 16 17 17 16 16 17 17 16 17 19 20 21 20 20 22 23 24 23 23 24 25 25 26 26 27 27 27 27 27 27 28 28 28 27 27 27 26 26 25 25 25 25 25 25 25 25 25 24
11 11 11 10 9 9 9 9 9 8 9 9 9 9 10 10 11 12 12 13 14 14 15 16 17 17 18 19 21 22 23 23 22 20 19 18 19 19 19 19 19 18 17 17 18 18 18 19 20 21 20 19 19 21 23 24 25 25 25 26 26 27 27 27 27 26 26 27 27 27 27 27 27 27 27 26 26 26 26 26 26 25 25 25 25 24
10 10 10 9 9 9 9 9 9 9 9 9 10 10 11 12 13 14 14 15 15 16 17 18 18 19 20 20 22 23 24 25 24 24 23 22 22 22 22 22 21 21 19 19 18 19 18 18 17 17 18 20 21 22 24 25 25 26 26 27 27 27 27 27 26 26 26 26 27 27 27 27 27 27 27 27 27 27 27 27 26 26 25 25 25 25
10 10 9 9 9 8 9 9 9 9 10 10 11 12 13 13 14 14 14 15 15 16 16 17 19 20 20 21 22 23 24 24 25 25 25 25 25 25 24 23 23 22 22 21 21 20 20 19 18 17 17 19 22 24 25 25 25 25 27 28 28 28 27 26 25 25 26 26 27 28 28 28 27 27 27 27 26 26 26 26 26 25 25 25 25 25
9 9 9 9 8 9 9 9 10 11 11 12 13 13 13 13 13 13 14 14 15 15 16 17 18 19 20 21 22 22 23 24 24 25 25 25 25 25 25 25 24 24 24 23 23 22 21 21 21 22 22 21 22 24 25 26 25 25 26 26 26 27 28 27 27 27 27 27 27 27 27 27 27 26 26 26 25 25 25 25 26 26 25 25 25 25
9 9 9 9 9 9 10 10 11 12 13 13 13 13 13 13 13 13 14 14 14 15 15 16 17 18 19 20 21 22 22 22 23 23 23 23 24 24 25 25 25 25 24 24 23 23 22 22 23 23 23 23 24 25 26 27 27 26 26 25 26 28 30 30 29 28 27 27 26 26 26 26 26 26 26 26 26 26 26 26 27 27 27 26 26 25
9 10 10 10 10 10 11 12 12 12 12 12 12 12 12 12 12 13 14 14 14 15 15 15 16 18 19 20 20 20 20 20 20 21 21 21 22 22 23 24 25 25 25 24 24 23 23 23 23 24 24 24 24 24 26 27 28 27 25 25 27 29 30 30 28 26 25 26 26 26 26 26 27 27 27 27 28 28 28 27 27 27 27 26 26 26
10 10 10 10 11 11 12 12 12 12 11 11 12 12 12 12 12 13 14 14 15 15 15 15 16 17 18 19 19 19 19 18 18 19 19 19 19 20 21 22 24 24 24 24 23 23 23 23 23 24 24 25 24 24 26 27 28 28 27 26 26 25 24 27 28 27 26 27 27 27 27 27 27 28 28 28 28 28 28 28 28 27 27 27 27 27
10 10 10 11 11 12 12 12 11 11 11 12 12 13 13 13 13 14 14 15 15 15 15 15 16 17 18 19 19 19 19 18 17 17 17 17 17 18 19 20 22 23 24 24 23 23 23 24 24 25 25 24 24 25 26 27 28 28 28 27 26 25 24 27 28 29 28 28 28 27 27 27 27 28 28 28 28 28 28 27 27 27 27 27 27 28
10 10 10 10 11 11 11 11 11 12 12 12 13 14 14 13 14 14 15 15 16 16 16 16 15 16 16 17 18 18 18 18 17 16 16 16 16 16 17 19 20 21 23 24 24 24 23 23 24 25 25 24 24 25 25 26 27 28 29 28 27 27 28 29 29 28 28 28 28 28 28 28 28 28 28 28 28 27 27 26 26 27 27 27 27 28
10 10 10 11 11 11 11 12 12 12 13 13 14 14 14 14 14 14 15 15 16 16 16 16 15 15 16 17 17 18 18 18 18 17 17 17 16 17 17 18 19 21 22 23 24 25 25 25 26 26 26 25 25 26 27 26 26 27 28 28 27 27 28 28 28 27 27 27 28 29 29 29 28 27 27 27 28 28 27 26 26 25 26 26 26 27
10 10 11 12 12 12 12 12 13 13 13 13 14 14 14 14 14 14 15 15 16 16 16 16 15 15 16 17 17 17 18 18 19 19 19 18 18 18 18 19 20 21 22 23 24 25 26 27 28 27 26 25 25 27 28 27 26 26 27 28 27 27 27 27 28 28 27 27 28 29 29 28 27 26 26 27 27 27 26 26 25 25 25 25 25 26
10 11 11 12 12 13 13 13 13 13 14 14 14 14 14 14 14 14 15 15 15 15 15 15 15 16 17 17 17 17 17 18 19 19 19 19 19 19 19 19 20 20 21 22 23 24 26 27 28 28 27 26 25 26 28 28 28 27 27 27 26 26 26 28 28 28 27 27 28 29 28 27 25 25 25 26 26 26 27 27 26 25 25 25 25 26
10 11 11 12 12 13 13 14 14 14 14 14 15 15 15 14 14 14 14 15 15 15 16 16 16 16 17 17 17 17 17 18 19 19 20 20 20 20 20 20 20 20 21 21 22 23 24 25 26 27 27 27 26 27 28 29 29 28 27 27 26 26 26 28 28 28 27 27 28 28 28 26 25 24 24 24 26 27 28 28 28 27 26 25 25 25
11 11 12 12 13 13 14 14 14 14 14 15 15 15 15 15 15 15 15 16 16 16 16 16 16 17 17 17 18 18 18 18 19 20 20 20 20 20 20 20 20 20 20 21 21 21 21 22 23 24 24 25 26 27 28 29 29 29 28 27 26 26 26 27 27 27 27 27 27 27 27 26 25 25 24 23 25 26 28 28 28 28 27 26 25 25
12 12 12 12 13 13 14 14 14 14 15 15 15 16 16 16 15 15 15 15 15 16 16 16 16 17 17 17 18 18 18 18 18 19 20 20 20 20 19 20 19 19 19 19 19 19 18 18 18 20 23 22 22 23 26 27 28 28 28 28 27 26 26 26 27 27 27 27 26 26 26 26 25 24 23 23 23 24 25 26 28 28 28 27 26 26
Wind_Direction
175 179 184 188 189 191 196 204 212 221 231 240 248 252 256 258 260 262 264 267 270 274 277 281 283 286 288 289 290 290 292 293 294 295 295 296 296 295 296 296 297 298 298 299 299 299 298 297 296 295 294 293 292 291 290 290 289 289 288 288 287 287 287 287 288 287 287 286 286 287 287 286 286 288 288 287 286 286 286 286 286 286 286 284 284 284
177 179 183 188 192 196 200 208 217 226 235 242 246 249 251 253 254 257 259 262 267 272 276 280 282 284 285 287 288 290 291 293 294 295 295 295 295 295 296 297 297 298 298 299 298 298 297 296 295 294 293 293 292 291 291 290 290 289 288 288 287 287 287 287 287 287 287 286 286 286 286 287 287 287 287 286 286 285 285 284 284 284 284 283 283 283
186 187 190 195 200 206 211 218 225 233 240 244 246 246 247 249 252 255 259 264 270 274 278 279 280 281 282 284 286 288 291 293 294 294 295 295 296 296 297 298 298 298 298 298 298 297 296 296 295 294 294 293 292 292 291 290 289 288 288 287 287 286 287 287 287 286 286 286 286 286 286 286 286 286 286 286 285 285 284 283 283 283 283 283 283 283
188 193 197 201 207 215 221 228 235 242 246 248 248 247 248 251 254 258 263 269 273 276 278 278 279 281 283 285 287 289 292 293 294 294 295 296 297 298 299 299 299 299 298 298 297 296 296 296 295 294 294 293 292 292 291 290 289 288 287 287 287 286 286 286 287 286 286 286 286 286 285 285 285 285 284 284 284 283 283 282 282 282 282 282 282 281
184 192 197 202 209 218 226 234 240 244 245 246 247 248 251 254 258 262 267 271 273 275 277 279 281 283 285 288 290 292 293 294 294 295 297 298 299 300 300 300 300 299 298 298 297 296 296 295 295 294 294 293 292 291 290 289 289 288 287 287 287 286 287 286 286 286 286 285 285 285 285 284 284 284 283 283 283 282 282 282 281 281 281 281 280 280
187 194 201 208 214 220 225 230 233 235 240 244 248 252 254 257 260 263 266 270 273 277 280 282 285 286 288 290 292 293 293 294 294 296 298 299 300 301 301 301 300 299 298 298 297 296 296 295 294 294 293 292 292 291 290 290 289 288 287 287 287 287 287 286 286 286 286 285 285 284 284 284 283 283 283 282 282 282 281 281 281 280 280 280 280 279
196 201 209 218 223 226 227 228 231 236 242 248 252 254 255 255 257 260 265 271 276 281 284 286 287 288 289 290 291 292 292 293 294 296 298 299 300 300 300 300 299 298 297 297 296 295 295 295 295 294 294 293 292 292 291 291 290 289 288 288 288 287 287 287 287 286 285 285 284 284 283 283 282 282 282 281 281 281 281 280 280 280 279 279 279 279
205 211 216 223 227 230 231 234 239 244 249 251 251 250 250 252 255 261 268 275 280 283 285 285 285 286 286 288 289 290 291 292 294 297 299 300 301 301 300 299 298 297 296 296 296 295 296 296 296 295 296 295 295 294 293 293 292 292 291 290 289 289 288 287 287 286 285 284 284 283 282 282 281 281 281 280 280 280 280 280 279 279 279 279 279 279
212 219 222 225 230 235 239 242 244 246 247 249 248 248 249 254 261 268 274 277 279 280 280 280 281 283 285 287 289 291 293 294 296 298 299 300 300 300 300 299 297 296 296 296 296 297 297 298 298 298 298 298 297 297 296 295 295 294 292 291 290 289 288 287 286 286 285 284 283 282 282 281 281 280 280 280 280 279 279 279 279 279 279 279 279 279
219 226 231 234 237 241 247 249 248 247 245 246 248 251 256 261 267 271 273 273 271 269 269 274 282 288 291 292 293 294 296 297 298 299 299 298 298 298 298 297 296 296 296 297 298 299 299 300 300 300 300 300 299 299 298 298 296 295 293 292 290 289 288 287 286 285 284 284 283 282 282 281 281 280 280 280 280 279 279 279 279 279 279 279 279 279
227 232 237 242 245 247 250 252 253 252 250 250 251 254 258 262 265 266 265 265 265 268 275 281 287 293 297 298 298 298 300 301 302 303 303 302 301 300 299 298 297 297 297 298 299 299 299 300 300 300 300 300 299 299 298 297 296 295 293 291 290 288 287 286 286 285 284 284 283 283 283 282 282 281 281 281 280 280 280 280 280 280 280 279 279 279
228 233 238 242 245 246 248 251 254 255 252 249 248 249 252 254 256 257 260 269 281 288 292 294 294 294 296 299 301 302 304 305 305 306 307 308 307 306 305 303 301 299 298 298 297 297 298 299 299 299 299 299 298 298 298 297 295 294 293 291 290 289 288 287 287 286 286 285 285 284 284 283 283 282 282 282 281 281 281 281 280 280 280 279 279 279
229 233 236 239 241 242 244 247 248 248 244 240 239 240 242 241 243 252 265 280 291 296 298 298 297 296 296 298 302 305 307 307 307 307 306 307 307 308 307 304 301 300 299 298 298 298 299 300 300 300 299 299 299 299 298 297 295 293 292 291 290 289 289 288 288 287 287 287 286 285 285 284 283 283 282 282 282 281 281 281 281 280 280 280 279 279
230 233 236 238 239 240 242 242 242 240 238 236 235 235 238 243 255 269 280 286 291 292 294 297 300 301 300 302 305 308 309 307 306 305 305 304 305 306 305 303 300 299 299 299 300 301 302 303 303 303 303 303 303 302 301 299 297 294 292 291 290 290 289 289 288 288 287 287 286 286 285 284 284 283 283 282 282 282 282 281 281 280 280 279 279 278
228 231 232 233 235 236 239 240 242 243 242 241 242 248 255 265 274 281 287 292 293 295 298 302 304 305 304 305 309 312 311 309 307 306 305 304 303 303 303 303 301 301 301 301 302 303 306 306 306 306 307 307 307 305 303 300 297 295 293 292 291 290 290 289 289 288 288 287 287 286 285 285 284 283 283 283 282 282 282 281 280 280 280 279 279 278
229 231 232 233 236 241 245 250 254 256 256 257 260 264 270 277 281 285 289 295 299 303 308 311 311 309 306 307 311 314 313 311 310 309 308 306 303 302 304 304 303 303 303 303 303 305 309 309 309 309 309 309 308 305 302 299 296 295 294 293 292 292 291 290 290 289 289 288 288 287 286 286 285 284 284 283 283 282 282 281 280 280 279 279 278 278
233 237 242 248 254 260 265 267 268 266 264 263 264 266 269 274 280 286 291 298 304 308 310 309 308 307 305 307 308 311 314 313 312 310 309 306 303 302 304 304 303 303 303 304 305 307 309 310 310 310 310 309 307 304 301 299 297 296 295 294 294 293 293 292 292 291 290 290 289 288 288 287 286 285 285 284 283 283 282 281 281 280 279 279 278 278
236 242 250 258 265 270 273 273 271 267 263 260 259 259 261 265 274 284 294 302 308 310 307 304 299 296 297 300 301 305 311 311 311 310 309 305 303 303 305 305 303 302 303 304 306 308 310 310 310 310 309 307 305 302 300 299 298 297 297 296 296 295 295 294 294 293 292 292 291 290 289 288 288 287 286 285 284 284 283 282 282 281 280 280 279 278
239 244 251 261 270 275 279 281 279 272 266 260 256 258 261 269 277 288 296 301 304 303 300 296 292 290 289 289 293 299 305 307 309 310 308 303 301 303 306 306 304 303 302 303 306 309 310 310 310 309 308 306 304 302 301 300 299 299 298 298 298 297 297 296 295 295 294 293 292 291 290 290 289 288 287 286 285 285 284 283 283 282 281 280 280 279
252 257 273 289 295 297 296 291 286 279 270 264 262 265 272 280 287 292 296 298 298 296 293 289 286 286 287 288 292 296 299 303 307 308 304 300 298 300 304 305 304 302 302 302 306 308 309 308 308 308 308 306 305 304 302 302 301 300 300 299 299 299 298 298 297 296 295 294 293 293 292 291 290 288 288 287 286 285 285 284 283 283 282 281 281 280
276 281 288 294 300 303 300 292 284 276 271 270 272 276 280 286 290 293 294 294 294 292 290 286 283 284 287 289 291 292 295 301 305 304 300 297 295 296 301 303 303 301 300 301 304 307 307 307 307 308 308 307 306 304 303 302 302 301 301 301 301 300 300 299 298 298 297 296 295 294 293 291 290 289 288 288 287 286 285 285 284 283 283 282 282 281
279 281 284 286 289 289 286 281 277 274 272 274 278 281 283 287 289 289 290 290 289 287 285 283 282 283 285 287 288 290 293 296 296 295 295 293 292 294 299 302 302 299 297 299 302 306 307 307 307 307 307 307 306 305 304 304 304 303 303 303 302 302 301 301 300 299 298 297 296 295 294 293 292 291 290 289 288 287 287 286 285 285 284 283 283 282
275 276 277 279 278 276 274 273 273 274 275 277 278 281 283 285 287 287 287 286 285 284 283 283 283 284 285 285 287 290 294 296 294 290 287 285 287 291 298 301 301 297 295 298 302 305 307 307 307 307 308 307 307 306 306 306 306 305 305 305 304 304 303 302 302 301 300 299 298 297 296 295 294 293 292 291 290 289 288 287 287 286 285 285 284 283
264 265 266 268 269 269 271 273 276 280 282 283 284 285 286 287 288 288 287 285 283 282 283 285 286 287 287 288 289 292 296 299 296 288 280 279 283 289 295 300 300 298 296 298 301 305 306 306 306 307 307 307 307 307 307 307 308 308 308 307 306 305 304 304 303 302 302 301 300 299 297 296 295 294 293 292 291 291 289 289 288 287 286 286 285 284
261 261 262 264 268 271 275 278 281 284 287 288 289 289 289 289 289 286 283 280 279 279 282 285 287 287 288 290 292 293 296 298 295 286 277 280 284 289 293 298 299 298 297 299 301 304 304 304 305 305 305 306 307 308 308 309 309 310 309 308 307 306 305 304 304 303 303 302 301 300 299 298 297 296 294 293 292 292 291 290 289 288 288 287 286 285
270 269 269 271 272 274 276 277 277 278 279 282 283 283 285 285 284 282 278 275 275 278 281 283 284 285 288 291 292 293 296 297 294 285 280 283 287 290 293 296 297 297 297 299 301 303 303 302 302 302 303 305 307 309 309 310 310 310 309 307 306 306 305 305 305 304 304 303 302 301 300 299 298 297 296 295 294 293 292 291 291 290 289 289 288 286
287 286 285 282 278 276 274 274 273 273 272 272 273 275 277 278 277 275 273 272 273 276 278 279 281 285 289 291 291 292 295 296 292 286 282 284 287 288 290 294 296 297 298 299 300 301 301 298 298 299 301 304 307 309 310 310 310 309 308 307 306 307 307 307 307 306 305 304 303 302 301 300 299 298 298 297 296 295 294 293 292 292 291 291 289 288
303 301 298 294 288 283 280 278 276 274 274 274 273 272 271 271 270 269 268 269 272 273 272 272 276 283 288 290 292 293 295 293 290 288 287 283 281 282 287 294 298 299 300 301 302 301 298 295 294 296 299 303 306 308 308 308 307 307 307 307 308 308 309 309 309 308 306 305 304 303 302 301 300 300 299 298 297 296 296 295 294 294 294 292 291 288
296 296 297 295 294 292 289 286 283 281 279 279 277 274 271 267 265 266 267 269 270 270 269 271 274 278 284 290 293 295 295 292 294 297 297 285 277 279 289 297 301 303 306 307 306 304 299 295 294 295 298 302 304 304 304 304 305 306 307 309 309 310 310 310 310 309 307 306 305 304 303 302 301 301 300 299 299 298 297 297 297 297 296 294 291 289
280 281 284 283 284 285 285 284 284 284 284 281 279 276 272 267 265 265 267 268 268 267 268 271 274 278 283 291 296 298 295 295 305 318 314 299 289 290 297 301 303 305 310 312 311 307 303 300 298 297 299 301 301 300 301 303 305 306 307 309 310 310 310 310 310 308 307 306 305 304 303 303 302 302 301 300 299 299 298 298 298 298 296 294 292 289
290 287 284 282 281 280 280 281 282 283 283 281 278 274 270 266 264 264 265 266 264 264 265 269 272 275 278 285 291 295 290 294 301 313 313 310 302 297 300 302 302 303 306 307 308 308 306 305 303 302 302 301 301 301 301 303 304 305 306 306 307 307 307 308 308 308 307 306 305 304 303 302 302 301 300 300 299 298 298 297 297 297 295 294 291 289
299 296 292 289 287 286 286 286 285 284 283 281 279 276 273 270 267 266 265 263 262 260 261 264 267 270 271 270 268 268 274 280 285 293 302 306 301 296 297 298 298 299 300 297 293 290 297 301 302 302 303 302 301 301 301 302 302 302 303 303 303 303 304 305 306 306 305 304 303 303 302 301 301 300 299 299 298 297 296 296 296 295 294 292 290 288
298 295 292 290 290 291 292 291 289 287 285 283 282 280 279 276 273 271 269 265 261 258 258 260 263 267 268 267 266 268 271 275 281 289 298 300 297 295 295 295 295 296 297 295 289 285 283 287 294 299 301 301 300 299 300 300 300 300 300 300 300 300 302 303 303 303 303 303 302 302 301 301 300 299 298 298 297 296 295 295 294 293 292 291 289 288
290 289 288 289 290 291 292 292 291 289 287 285 283 282 281 280 277 274 271 266 262 258 256 257 260 263 266 269 269 270 272 275 280 286 292 294 293 293 294 294 294 295 297 296 293 289 285 286 290 296 299 300 299 298 298 298 299 299 300 299 298 298 299 300 301 300 300 301 300 300 300 300 299 299 298 297 296 296 295 294 294 293 291 290 289 289
286 286 287 288 290 292 293 293 292 290 288 285 284 283 281 279 276 272 269 266 263 261 259 258 259 260 262 265 269 272 274 277 280 284 287 288 291 292 293 291 291 293 294 294 293 292 290 289 290 293 296 299 299 298 297 297 298 300 300 299 298 297 297 298 298 298 298 299 299 299 299 299 299 299 298 297 296 295 294 294 294 293 291 290 289 289
286 286 287 289 291 293 294 294 293 290 287 285 282 280 278 274 272 270 268 266 265 264 263 262 261 261 261 262 264 269 273 278 282 284 284 283 285 286 287 286 286 288 289 289 289 289 289 291 292 292 293 295 297 298 299 300 300 300 299 299 297 297 296 297 297 296 296 297 297 297 298 298 298 298 297 296 295 294 294 293 292 291 290 288 287 286
285 287 288 291 293 294 295 294 291 288 285 283 280 277 274 271 269 267 266 265 265 264 264 264 264 263 262 262 264 267 271 276 280 282 282 281 280 279 278 279 281 282 281 282 284 286 287 290 291 292 291 290 291 295 299 302 303 302 299 299 298 298 297 297 296 296 295 294 295 295 296 297 296 296 295 295 294 294 293 292 291 290 289 288 286 284
285 287 289 292 294 294 294 293 291 289 286 285 282 279 276 274 272 271 270 269 270 269 269 269 269 269 268 267 267 269 272 276 278 280 281 280 279 276 273 275 277 277 275 275 277 280 282 285 288 290 290 289 289 291 295 299 300 300 299 299 299 298 297 297 297 296 295 295 294 295 295 295 294 294 294 294 294 294 293 292 292 291 290 288 286 284
285 288 291 293 294 294 294 294 293 291 288 286 283 281 280 280 281 281 281 281 281 281 279 278 278 277 276 275 275 274 275 276 278 280 281 281 278 275 273 272 273 275 275 274 273 273 275 276 279 282 285 288 290 291 293 294 295 296 298 300 300 298 297 297 297 297 295 295 294 294 294 294 293 293 293 293 293 292 291 291 291 291 289 288 287 286
288 290 292 293 293 294 295 294 292 290 288 286 285 285 286 288 290 290 290 290 290 289 288 286 285 284 282 281 279 279 278 279 281 282 282 281 280 277 274 272 272 274 275 275 273 271 271 271 274 276 278 281 285 289 292 292 292 294 297 298 298 298 297 298 297 296 295 294 292 292 292 293 293 293 292 292 291 289 288 288 288 288 287 287 286 286
290 291 291 291 294 295 294 291 290 289 288 289 291 294 296 296 295 295 294 293 291 290 289 289 287 286 285 282 281 281 281 281 282 282 282 282 281 280 277 274 273 273 274 274 272 270 268 269 272 274 276 278 281 284 287 288 290 291 293 292 291 293 295 296 295 295 294 293 292 292 292 292 292 292 291 290 289 287 286 285 285 285 285 284 282 281
288 290 291 294 296 296 294 292 293 296 297 299 300 299 298 297 296 295 295 294 292 291 290 289 288 287 286 285 284 282 281 281 281 281 281 281 280 280 278 276 274 273 273 272 271 270 268 268 269 272 275 277 279 282 284 286 287 288 287 287 288 291 294 294 294 293 293 293 293 293 292 292 291 291 290 289 288 286 285 283 282 282 281 280 278 276
289 292 296 299 299 299 297 299 302 304 304 303 301 299 297 295 293 293 292 291 291 291 290 289 289 288 287 287 287 287 285 284 283 283 282 281 281 280 279 278 276 274 272 270 270 271 271 270 269 270 272 275 276 278 281 285 286 287 286 285 287 289 291 292 293 294 294 293 292 292 291 290 290 289 289 288 286 285 284 282 282 281 277 276 274 273
299 303 304 303 302 302 302 304 306 305 303 301 298 296 295 293 292 291 290 288 288 289 289 290 290 289 287 287 289 290 291 290 289 287 285 283 282 281 280 280 278 276 274 270 269 271 274 274 273 273 274 274 275 276 279 282 284 285 285 285 284 282 282 285 289 292 293 292 291 290 289 289 289 288 288 287 285 284 282 280 279 277 275 274 272 271
310 309 307 306 307 308 308 306 305 303 300 297 296 295 295 294 293 291 289 287 286 287 288 289 290 289 287 288 290 292 294 295 294 291 289 287 285 283 281 280 279 278 275 272 269 269 271 273 275 277 277 275 274 274 275 278 281 283 284 284 283 281 279 282 284 287 288 289 289 289 289 289 289 288 287 286 285 284 282 280 278 276 275 274 272 270
305 304 304 306 307 307 305 303 302 300 298 295 294 295 295 296 294 292 289 286 285 286 286 288 287 285 284 287 291 294 295 297 297 296 295 293 291 289 285 282 280 278 276 274 272 270 269 269 272 276 278 278 277 275 274 276 278 280 282 283 283 283 283 283 283 283 284 285 286 288 289 289 288 287 285 284 285 285 283 281 279 276 275 274 272 270
298 301 303 304 304 303 301 300 300 298 296 294 294 295 296 295 294 292 289 287 285 285 286 287 285 282 281 284 288 291 294 295 297 298 298 298 296 294 291 288 285 282 278 276 274 272 270 269 269 270 273 275 277 277 277 277 276 277 280 282 283 283 283 283 283 283 283 283 284 285 287 288 287 285 283 284 284 284 284 283 281 279 277 275 274 272
299 301 302 303 302 300 299 299 298 297 295 294 294 294 295 294 293 291 289 287 287 287 288 287 284 282 282 283 285 287 289 291 293 295 298 298 298 297 295 293 290 287 284 280 277 274 272 270 269 268 267 268 271 275 277 278 277 277 278 279 280 281 281 282 283 284 284 283 283 283 284 284 283 282 283 284 285 286 286 286 285 283 281 279 277 274
298 299 300 300 299 298 296 296 296 295 293 292 292 293 293 293 290 288 287 287 287 287 286 284 283 282 282 283 284 286 287 288 290 292 294 296 297 297 297 296 295 293 291 287 283 280 278 275 272 268 265 263 264 268 273 275 276 276 277 277 277 278 279 281 283 284 284 284 284 284 285 283 282 281 282 283 284 286 287 287 287 286 284 282 279 277
294 295 296 296 295 294 294 294 294 292 291 290 290 290 291 291 289 288 288 287 286 283 281 279 279 279 281 283 285 286 288 288 289 290 291 294 295 295 295 295 296 295 295 294 291 289 287 284 281 276 270 264 261 263 267 271 275 277 278 277 276 277 278 280 282 284 285 286 286 287 287 286 284 283 282 282 283 284 286 287 287 287 286 285 283 280
292 294 295 294 293 292 292 292 291 290 289 288 288 288 289 290 291 291 289 287 285 282 279 277 276 277 279 282 284 286 286 286 286 287 289 292 293 293 293 293 293 293 294 295 296 295 294 292 290 288 284 276 267 263 263 267 273 277 278 278 279 279 280 281 283 285 286 287 288 288 288 288 287 285 283 282 282 284 286 287 287 288 287 287 285 283